GW2188 Weather Reports


Display with metric or nautical units.
time (UTC)temp
F
wind
direction
speed
MPH
gust
MPH
rain 1hr
in
rain 24hr
in
rain mn
in
humidity
%
barometer
mb
20260504201550 70 87 3.0 12.0 0.00 0.00 0.00 45 1012.0
20260504201045 70 280 5.0 14.0 0.00 0.00 0.00 45 1012.2
20260504200540 70 5 2.0 14.0 0.00 0.00 0.00 44 1012.3
20260504200100 70 261 8.0 13.0 0.00 0.00 0.00 43 1012.3
20260504195548 70 133 3.0 11.0 0.00 0.00 0.00 44 1012.2
20260504195041 71 96 2.0 14.0 0.00 0.00 0.00 43 1012.2
20260504194603 71 288 5.0 12.0 0.00 0.00 0.00 42 1012.2
20260504194047 71 355 4.0 8.0 0.00 0.00 0.00 41 1012.0
20260504193541 71 5 3.0 10.0 0.00 0.00 0.00 42 1012.1
20260504193055 72 21 4.0 13.0 0.00 0.00 0.00 42 1012.1
20260504192544 72 49 4.0 13.0 0.00 0.00 0.00 43 1012.1
20260504192037 72 279 4.0 10.0 0.00 0.00 0.00 42 1012.0
20260504191509 71 70 3.0 20.0 0.00 0.00 0.00 45 1012.0
20260504191102 71 126 5.0 20.0 0.00 0.00 0.00 44 1011.9
20260504190556 71 238 2.0 10.0 0.00 0.00 0.00 44 1012.2
20260504190026 70 56 3.0 10.0 0.00 0.00 0.00 44 1012.4
20260504185516 70 42 4.0 13.0 0.00 0.00 0.00 45 1012.5
20260504185010 70 338 3.0 10.0 0.00 0.00 0.00 44 1012.5
20260504184544 70 38 4.0 11.0 0.00 0.00 0.00 44 1012.5
20260504184038 70 17 2.0 11.0 0.00 0.00 0.00 44 1012.5
20260504183531 69 186 4.0 11.0 0.00 0.00 0.00 45 1012.6
20260504183041 69 360 5.0 11.0 0.00 0.00 0.00 47 1012.6
20260504182532 69 173 2.0 11.0 0.00 0.00 0.00 47 1012.9
20260504182026 69 21 3.0 10.0 0.00 0.00 0.00 50 1013.0
20260504181603 68 170 4.0 13.0 0.00 0.00 0.00 48 1013.1
20260504181053 68 37 3.0 13.0 0.00 0.00 0.00 48 1013.2
20260504180546 68 38 4.0 14.0 0.00 0.00 0.00 49 1013.2
20260504180056 67 53 6.0 14.0 0.00 0.00 0.00 49 1013.1
20260504175546 67 338 3.0 12.0 0.00 0.00 0.00 49 1013.4
20260504175040 67 151 3.0 12.0 0.00 0.00 0.00 49 1013.4
20260504174553 67 55 3.0 9.0 0.00 0.00 0.00 52 1013.7
20260504174046 67 5 2.0 13.0 0.00 0.00 0.00 52 1013.7
20260504173538 67 105 4.0 11.0 0.00 0.00 0.00 52 1013.9
20260504173008 66 99 2.0 9.0 0.00 0.00 0.00 53 1013.8
20260504172502 66 324 3.0 10.0 0.00 0.00 0.00 52 1013.9
20260504172055 66 57 4.0 10.0 0.00 0.00 0.00 54 1013.9
20260504171539 66 96 4.0 10.0 0.00 0.00 0.00 54 1014.0
20260504171017 65 166 3.0 10.0 0.00 0.00 0.00 54 1014.2
20260504170511 65 158 1.0 5.0 0.00 0.00 0.00 56 1014.3
20260504151053 62 297 2.0 15.0 0.00 0.00 0.00 49 1015.6
20260504150545 62 244 7.0 15.0 0.00 0.00 0.00 49 1015.6
20260504141039 61 106 5.0 15.0 0.00 0.00 0.00 48 1015.9
20260504140534 61 269 3.0 15.0 0.00 0.00 0.00 48 1016.0
20260504130547 59 128 3.0 9.0 0.00 0.00 0.00 49 1015.8
20260504110545 47 59 0.0 0.0 0.00 0.00 0.00 77 1016.7
20260504100511 47 59 0.0 0.0 0.00 0.00 0.00 76 1016.8
20260504090122 47 265 0.0 0.0 0.00 0.00 0.00 74 1017.4
20260504081518 49 265 0.0 1.0 0.00 0.00 0.00 70 1017.6
20260504081003 49 265 0.0 1.0 0.00 0.00 0.00 68 1017.6
20260504080550 49 265 0.0 1.0 0.00 0.00 0.00 67 1017.7
20260504050557 47 265 0.0 0.0 0.00 0.00 0.00 56 1018.4
20260504050016 47 265 0.0 0.0 0.00 0.00 0.00 57 1018.3
20260504045602 47 265 0.0 0.0 0.00 0.00 0.00 56 1018.4
20260504045047 47 265 0.0 0.0 0.00 0.00 0.00 57 1018.3
20260504044518 47 265 0.0 0.0 0.00 0.00 0.00 57 1018.5
20260504044057 48 265 0.0 0.0 0.00 0.00 0.00 55 1018.5
20260504043543 48 265 0.0 0.0 0.00 0.00 0.00 56 1018.4
20260504043048 48 265 0.0 0.0 0.00 0.00 0.00 55 1018.5
20260504042525 48 265 0.0 0.0 0.00 0.00 0.00 55 1018.4
20260504042010 48 265 0.0 0.0 0.00 0.00 0.00 55 1018.4
20260504041513 48 265 0.0 0.0 0.00 0.00 0.00 55 1018.4
20260504041059 48 265 0.0 0.0 0.00 0.00 0.00 55 1018.4
20260504040544 48 265 0.0 0.0 0.00 0.00 0.00 55 1018.5
20260504040003 48 265 0.0 0.0 0.00 0.00 0.00 55 1018.5
20260504035554 48 265 0.0 0.0 0.00 0.00 0.00 54 1018.5
20260504035036 48 265 0.0 0.0 0.00 0.00 0.00 53 1018.5
20260504034537 48 265 0.0 0.0 0.00 0.00 0.00 53 1018.5
20260504034022 49 265 0.0 0.0 0.00 0.00 0.00 53 1018.6
20260504033511 49 265 0.0 0.0 0.00 0.00 0.00 52 1018.6
20260504033030 49 265 0.0 0.0 0.00 0.00 0.00 53 1018.6
20260504032512 49 265 0.0 0.0 0.00 0.00 0.00 52 1018.6
20260504032101 49 265 0.0 0.0 0.00 0.00 0.00 52 1018.6
20260504031521 49 265 0.0 0.0 0.00 0.00 0.00 53 1018.7
20260504031004 49 265 0.0 0.0 0.00 0.00 0.00 51 1018.6
20260504030553 49 265 0.0 0.0 0.00 0.00 0.00 52 1018.6
20260504030052 49 265 0.0 0.0 0.00 0.00 0.00 51 1018.6
20260504025537 49 265 0.0 0.0 0.00 0.00 0.00 51 1018.7
20260504025021 49 265 0.0 0.0 0.00 0.00 0.00 51 1018.7
20260504024523 49 265 0.0 0.0 0.00 0.00 0.00 50 1018.6
20260504024008 49 265 0.0 0.0 0.00 0.00 0.00 50 1018.6
20260504023555 49 265 0.0 0.0 0.00 0.00 0.00 50 1018.7
20260504023018 49 265 0.0 0.0 0.00 0.00 0.00 50 1018.7
20260504022603 49 265 0.0 0.0 0.00 0.00 0.00 50 1018.7
20260504022048 49 265 0.0 0.0 0.00 0.00 0.00 50 1018.7
20260504021511 50 265 0.0 0.0 0.00 0.00 0.00 48 1018.6
20260504021056 50 265 0.0 0.0 0.00 0.00 0.00 49 1018.6
20260504020543 50 265 0.0 0.0 0.00 0.00 0.00 49 1018.6
20260504020040 50 265 0.0 0.0 0.00 0.00 0.00 49 1018.7
20260504015526 50 265 0.0 0.0 0.00 0.00 0.00 48 1018.7
20260504015009 50 265 0.0 0.0 0.00 0.00 0.00 48 1018.6
20260504014539 50 265 0.0 0.0 0.00 0.00 0.00 48 1018.7
20260504014017 50 265 0.0 0.0 0.00 0.00 0.00 48 1018.6
20260504013503 50 265 0.0 0.0 0.00 0.00 0.00 47 1018.6
20260504013121 50 265 0.0 0.0 0.00 0.00 0.00 47 1018.6
20260504012547 50 265 0.0 0.0 0.00 0.00 0.00 47 1018.6
20260504012035 50 265 0.0 0.0 0.00 0.00 0.00 47 1018.6
20260504011537 50 265 0.0 0.0 0.00 0.00 0.00 47 1018.6
20260504011017 50 265 0.0 0.0 0.00 0.00 0.00 46 1018.7
20260504010504 50 265 0.0 0.0 0.00 0.00 0.00 46 1018.7
20260504010027 50 265 0.0 0.0 0.00 0.00 0.00 45 1018.6
20260504005510 50 265 0.0 0.0 0.00 0.00 0.00 45 1018.6
20260504005057 50 265 0.0 0.0 0.00 0.00 0.00 45 1018.5
20260504004609 50 265 0.0 0.0 0.00 0.00 0.00 45 1018.4
20260504004043 51 265 0.0 0.0 0.00 0.00 0.00 45 1018.3
20260504003528 51 265 0.0 0.0 0.00 0.00 0.00 44 1018.3
20260504003034 51 265 0.0 0.0 0.00 0.00 0.00 44 1018.3
20260504002512 51 265 0.0 0.0 0.00 0.00 0.00 43 1018.3
20260504002101 52 265 0.0 0.0 0.00 0.00 0.00 43 1018.2
20260504001608 52 265 0.0 0.0 0.00 0.00 0.00 42 1018.3
20260504001044 52 265 0.0 0.0 0.00 0.00 0.00 42 1018.3
20260504000531 53 265 0.0 0.0 0.00 0.00 0.00 41 1018.4
20260504000050 53 265 0.0 0.0 0.00 0.00 0.00 40 1018.4
20260503235536 54 265 0.0 0.0 0.00 0.00 0.00 41 1018.3
20260503235020 54 265 0.0 1.0 0.00 0.00 0.00 39 1018.3
20260503234519 54 277 0.0 3.0 0.00 0.00 0.00 39 1018.4
20260503234001 55 277 0.0 6.0 0.00 0.00 0.00 38 1018.3
20260503233547 55 259 2.0 6.0 0.00 0.00 0.00 37 1018.4
20260503233000 55 305 2.0 6.0 0.00 0.00 0.00 36 1018.4
20260503232548 56 5 0.0 6.0 0.00 0.00 0.00 37 1018.5
20260503232031 56 286 2.0 6.0 0.00 0.00 0.00 35 1018.5
20260503231514 57 252 1.0 7.0 0.00 0.00 0.00 33 1018.4
20260503231056 57 258 2.0 7.0 0.00 0.00 0.00 34 1018.4
20260503230545 57 277 2.0 6.0 0.00 0.00 0.00 34 1018.6
20260503230104 57 201 2.0 6.0 0.00 0.00 0.00 33 1018.5
20260503225545 57 338 1.0 7.0 0.00 0.00 0.00 34 1018.6
20260503225033 58 227 2.0 7.0 0.00 0.00 0.00 35 1018.6
20260503224534 58 346 0.0 3.0 0.00 0.00 0.00 35 1018.7
20260503224015 58 117 0.0 9.0 0.00 0.00 0.00 34 1018.6
20260503223604 58 268 3.0 9.0 0.00 0.00 0.00 32 1018.7
20260503223102 58 325 2.0 10.0 0.00 0.00 0.00 33 1018.6
20260503222546 58 360 3.0 10.0 0.00 0.00 0.00 32 1018.6
20260503222031 58 216 2.0 9.0 0.00 0.00 0.00 33 1018.7
20260503221532 58 286 4.0 9.0 0.00 0.00 0.00 32 1018.7
20260503221015 58 274 2.0 5.0 0.00 0.00 0.00 33 1018.6
20260503220604 58 313 1.0 5.0 0.00 0.00 0.00 34 1018.6
20260503220121 58 50 1.0 5.0 0.00 0.00 0.00 32 1018.6
20260503215544 58 276 2.0 6.0 0.00 0.00 0.00 33 1018.6
20260503215029 58 63 0.0 9.0 0.00 0.00 0.00 32 1018.5
20260503214554 58 210 2.0 9.0 0.00 0.00 0.00 32 1018.6
20260503214041 58 258 2.0 6.0 0.00 0.00 0.00 33 1018.6
20260503213523 58 51 2.0 10.0 0.00 0.00 0.00 33 1018.6
20260503213022 58 219 2.0 10.0 0.00 0.00 0.00 32 1018.6
20260503212507 58 78 4.0 7.0 0.00 0.00 0.00 32 1018.6
20260503212053 58 314 2.0 6.0 0.00 0.00 0.00 32 1018.5
20260503211555 58 288 1.0 8.0 0.00 0.00 0.00 33 1018.7
20260503211039 58 165 4.0 13.0 0.00 0.00 0.00 31 1018.6
20260503210525 58 298 4.0 13.0 0.00 0.00 0.00 31 1018.9
20260503210022 58 288 4.0 10.0 0.00 0.00 0.00 32 1018.8
20260503205507 57 325 3.0 7.0 0.00 0.00 0.00 33 1018.9
20260503205053 58 117 0.0 9.0 0.00 0.00 0.00 33 1019.0
20260503204519 57 339 2.0 8.0 0.00 0.00 0.00 32 1019.1
20260503204102 57 246 4.0 11.0 0.00 0.00 0.00 32 1019.2
20260503203548 57 9 4.0 12.0 0.00 0.00 0.00 32 1019.2
20260503203006 57 265 5.0 14.0 0.00 0.00 0.00 31 1019.4
20260503202555 57 225 6.0 14.0 0.00 0.00 0.00 32 1019.3
20260503202038 57 271 5.0 11.0 0.00 0.00 0.00 32 1019.4